FKL988 RKSS-ZSSS

Flight info

Callsign FKL988
Flight time N/A
Altitude 36000
Route RKSS/32R NOPI2Q DCT GONAV/F360 DCT AGAVO DCT LILMO DCT OMLIB DCT LUDVU DCT DOPNO DCT IVPIP DCT IKADI DCT SURAK DCT EMSAN DCT MATNU DCT ALDAP DCT HSH DCT TOSAS DCT SS013 ZSSS/18L
Aircraft A332/M-SDE3FGHIRWY/L

Departure

Time 2026-04-30 14:00
Airport Gimpo International Airport (RKSS)

Arrival

Time N/A
Airport Shanghai Hongqiao International Airport (ZSSS)
Time Latitude Longitude Altitude Speed Heading
2026-04-30 12:55 37.56774 126.80194 48 ft 0 kts 135°
2026-04-30 13:42 37.56781 126.80186 48 ft 3 kts 135°
2026-04-30 13:42 37.56809 126.80159 48 ft 0 kts 188°
2026-04-30 13:43 37.56828 126.80159 49 ft 3 kts 156°
2026-04-30 13:43 37.56845 126.80149 48 ft 3 kts 180°
2026-04-30 13:43 37.56862 126.80154 48 ft 0 kts 230°
2026-04-30 13:43 37.56862 126.80152 48 ft 0 kts 232°
2026-04-30 13:45 37.56861 126.80152 48 ft 0 kts 232°
2026-04-30 13:47 37.56861 126.80151 48 ft 0 kts 232°
2026-04-30 13:48 37.56861 126.80149 48 ft 1 kts 237°
2026-04-30 13:48 37.56860 126.80146 48 ft 1 kts 243°
2026-04-30 13:48 37.56863 126.80156 48 ft 2 kts 249°
2026-04-30 13:48 37.56869 126.80175 48 ft 2 kts 249°
2026-04-30 13:49 37.56875 126.80194 56 ft 2 kts 249°
2026-04-30 13:51 37.56845 126.80110 52 ft 12 kts 240°
2026-04-30 13:51 37.56789 126.80027 49 ft 13 kts 226°
2026-04-30 13:51 37.56721 126.79938 48 ft 15 kts 224°
2026-04-30 13:52 37.56641 126.79839 48 ft 17 kts 224°
2026-04-30 13:52 37.56552 126.79730 48 ft 19 kts 224°
2026-04-30 13:52 37.56454 126.79610 49 ft 20 kts 224°
2026-04-30 13:52 37.56354 126.79480 53 ft 22 kts 225°
2026-04-30 13:53 37.56246 126.79347 49 ft 22 kts 225°
2026-04-30 13:53 37.56160 126.79288 50 ft 7 kts 172°
2026-04-30 13:53 37.56122 126.79322 50 ft 13 kts 141°
2026-04-30 13:53 37.56012 126.79444 48 ft 20 kts 137°
2026-04-30 13:54 37.55934 126.79552 52 ft 16 kts 135°
2026-04-30 13:54 37.55854 126.79654 49 ft 17 kts 135°
2026-04-30 13:54 37.55763 126.79768 51 ft 19 kts 135°
2026-04-30 13:54 37.55664 126.79894 49 ft 21 kts 135°
2026-04-30 13:55 37.55554 126.80030 51 ft 23 kts 135°
2026-04-30 13:55 37.55439 126.80178 51 ft 24 kts 136°
2026-04-30 13:55 37.55315 126.80329 52 ft 25 kts 134°
2026-04-30 13:55 37.55192 126.80475 52 ft 20 kts 151°
2026-04-30 13:56 37.55112 126.80461 55 ft 9 kts 214°
2026-04-30 13:56 37.55063 126.80410 51 ft 9 kts 223°
2026-04-30 13:56 37.55015 126.80350 52 ft 10 kts 226°
2026-04-30 13:56 37.54958 126.80277 51 ft 13 kts 224°
2026-04-30 13:57 37.54912 126.80221 53 ft 0 kts 224°
2026-04-30 13:58 37.54841 126.80101 51 ft 20 kts 263°
2026-04-30 13:58 37.54877 126.79992 51 ft 9 kts 326°
2026-04-30 13:59 37.54910 126.79958 51 ft 1 kts 316°
2026-04-30 13:59 37.54915 126.79951 52 ft 0 kts 315°
2026-04-30 13:59 37.54916 126.79950 52 ft 6 kts 315°
2026-04-30 14:00 37.55203 126.79592 54 ft 105 kts 315°
2026-04-30 14:00 37.56912 126.77448 605 ft 213 kts 314°
2026-04-30 14:00 37.57192 126.77092 849 ft 217 kts 315°